User: anonymous   Login
Location: ???? ????
(41.4149°N, 22.8816°E)
Time: 00:13:34
(UTC+00:00)
Language:

Cosmos 1816 Rocket - Orbit

View from above orbital plane
View from above orbital plane
View from above satellite
View from above satellite

Ground track
Ground track

The orbit data is extracted from the following two-line orbital elements,

1 17360U 87009B   20271.52479199  .00000140  00000-0  12568-3 0  9999
2 17360  82.9152  94.6968 0033800  81.2829 330.9625 13.76750645691088
Epoch (UTC): 27 September 2020 12:35:42
Eccentricity: 0.0033800
inclination: 82.9152°
perigee height: 950 km
apogee height: 1000 km
right ascension of ascending node: 94.6968°
argument of perigee: 81.2829°
revolutions per day: 13.76750645
mean anomaly at epoch: 330.9625°
orbit number at epoch: 69108

The dashed part of the orbit path shows where the satellite is in the earth's shadow,  

DLR